Ypsilanti, MI

7:10 AM EST on February 10, 2016 (GMT -0500)
Willow Run

Weather History for KYIP - September, 2014

Change the Weather History Date:

Tuesday, September 2, 2014

  Actual Average Record
Temperature  
Mean Temperature 74 °F -  
Max Temperature 82 °F 80 °F 99 °F (2011)
Min Temperature 66 °F 59 °F 45 °F (1949)
Cooling Degree Days 8    
Growing Degree Days 24 (Base 50)    
Moisture  
Dew Point 65 °F    
Average Humidity 76    
Maximum Humidity 84    
Minimum Humidity 47    
Precipitation  
Precipitation 0.24 in - - ()
Sea Level Pressure  
Sea Level Pressure 29.87 in    
Wind  
Wind Speed 8 mph (SW)    
Max Wind Speed 17 mph    
Max Gust Speed 21 mph    
Visibility 9 miles    
Events Rain    
Averages and records for this station are not official NWS values.
T = Trace of Precipitation, MM = Missing Value Source: NWS Daily Summary

Daily Weather History Graph

Daily Weather History Graph

Search for Another Location

Airport or City:

Trip Planner

Search our weather history database for the weather conditions in past years. The results will help you decide how hot, cold, wet, or windy it might be!

Date:

Astronomy

Sep. 02, 2014 Rise Set
Actual Time 7:00 AM EDT 8:06 PM EDT
Civil Twilight 6:31 AM EDT 8:34 PM EDT
Nautical Twilight 5:57 AM EDT 9:09 PM EDT
Astronomical Twilight 5:21 AM EDT 9:45 PM EDT
Moon 2:51 PM EDT (9/2) 12:00 AM EDT (9/2)
Length of Visible Light 14h 03m
Length of Day
13h 05m
First Quarter, 52% of the Moon is Illuminated
Sep 2
First Quarter
Sep 8
Full
Sep 15
Last Quarter
Sep 24
New
Oct 1
First Quarter

Hourly Weather History & Observations

Time (EDT) Temp. Heat Index Dew Point Humidity Pressure Visibility Wind Dir Wind Speed Gust Speed Precip Events Conditions
12:53 AM 73.9 °F - 68.0 °F 82% 29.84 in 6.0 mi SSW 8.1 mph - N/A   Haze
1:53 AM 73.9 °F - 68.0 °F 82% 29.84 in 7.0 mi SW 6.9 mph - N/A   Clear
2:53 AM 73.0 °F - 66.9 °F 81% 29.83 in 10.0 mi SW 10.4 mph - N/A   Clear
3:53 AM 73.0 °F - 66.9 °F 81% 29.85 in 10.0 mi SW 11.5 mph - N/A   Clear
4:53 AM 72.0 °F - 66.0 °F 81% 29.83 in 10.0 mi WSW 6.9 mph - N/A   Partly Cloudy
5:53 AM 72.0 °F - 66.0 °F 81% 29.84 in 10.0 mi SSW 5.8 mph - N/A   Clear
6:53 AM 72.0 °F - 64.9 °F 78% 29.85 in 10.0 mi SSW 9.2 mph - N/A   Clear
7:53 AM 72.0 °F - 64.9 °F 78% 29.87 in 10.0 mi SW 9.2 mph - 0.01 in   Mostly Cloudy
8:46 AM 72.0 °F - 66.0 °F 81% 29.89 in 7.0 mi SSW 8.1 mph - 0.00 in Rain Rain
8:53 AM 72.0 °F - 66.0 °F 81% 29.87 in 8.0 mi SSW 6.9 mph - 0.01 in Rain Light Rain
9:36 AM 72.0 °F - 66.0 °F 81% 29.88 in 10.0 mi SSW 5.8 mph - 0.00 in   Overcast
9:53 AM 72.0 °F - 66.0 °F 81% 29.86 in 7.0 mi Calm Calm - 0.00 in Rain Light Rain
10:10 AM 73.0 °F - 66.0 °F 79% 29.87 in 6.0 mi SW 4.6 mph - 0.01 in Rain Light Rain
10:23 AM 73.0 °F - 66.9 °F 81% 29.87 in 8.0 mi SSW 5.8 mph - 0.01 in Rain Light Rain
10:42 AM 73.0 °F - 66.9 °F 81% 29.88 in 10.0 mi SSW 5.8 mph - 0.01 in   Overcast
10:53 AM 73.0 °F - 66.9 °F 81% 29.86 in 10.0 mi SSW 6.9 mph - 0.01 in   Overcast
11:19 AM 73.9 °F - 68.0 °F 82% 29.88 in 10.0 mi SSW 10.4 mph - N/A   Mostly Cloudy
11:26 AM 73.9 °F - 68.0 °F 82% 29.89 in 10.0 mi SSW 9.2 mph - N/A   Overcast
11:53 AM 73.9 °F - 68.0 °F 82% 29.86 in 10.0 mi SSW 9.2 mph - N/A   Overcast
12:04 PM 73.9 °F - 66.9 °F 79% 29.88 in 10.0 mi SSW 9.2 mph - 0.00 in Rain Light Rain
12:12 PM 73.9 °F - 66.9 °F 79% 29.88 in 10.0 mi South 16.1 mph - 0.00 in   Overcast
12:45 PM 72.0 °F - 66.9 °F 84% 29.87 in 1.8 mi SSW 17.3 mph - 0.14 in Rain Heavy Rain
12:53 PM 72.0 °F - 66.0 °F 81% 29.85 in 1.2 mi SSW 17.3 mph - 0.21 in Rain Heavy Rain
12:56 PM 72.0 °F - 66.9 °F 84% 29.87 in 2.0 mi SSW 11.5 mph 20.7 mph 0.00 in Rain Light Rain
12:58 PM 72.0 °F - 66.9 °F 84% 29.87 in 3.0 mi SW 10.4 mph 20.7 mph 0.00 in Rain Light Rain
1:08 PM 73.0 °F - 66.9 °F 81% 29.88 in 10.0 mi SW 10.4 mph - 0.00 in   Overcast
1:16 PM 73.0 °F - 66.9 °F 81% 29.88 in 10.0 mi SW 9.2 mph - 0.00 in   Overcast
1:53 PM 75.0 °F - 68.0 °F 79% 29.86 in 10.0 mi SW 10.4 mph - 0.00 in   Mostly Cloudy
2:31 PM 75.0 °F - 68.0 °F 79% 29.89 in 10.0 mi SW 12.7 mph - N/A   Mostly Cloudy
2:53 PM 77.0 °F - 68.0 °F 74% 29.84 in 10.0 mi SSW 5.8 mph - N/A   Partly Cloudy
3:53 PM 79.0 °F - 62.1 °F 56% 29.86 in 10.0 mi NW 9.2 mph - N/A   Clear
4:53 PM 81.0 °F 81.3 °F 59.0 °F 47% 29.87 in 10.0 mi WNW 15.0 mph - N/A   Partly Cloudy
5:53 PM 81.0 °F 81.3 °F 59.0 °F 47% 29.87 in 10.0 mi NW 11.5 mph - N/A   Clear
6:53 PM 80.1 °F 80.7 °F 59.0 °F 48% 29.87 in 10.0 mi NW 8.1 mph - N/A   Clear
7:53 PM 75.9 °F - 62.1 °F 62% 29.88 in 10.0 mi NNW 4.6 mph - N/A   Clear
8:53 PM 73.0 °F - 62.1 °F 68% 29.90 in 10.0 mi Calm Calm - N/A   Clear
9:53 PM 66.9 °F - 60.1 °F 79% 29.92 in 10.0 mi South 3.5 mph - N/A   Clear
10:53 PM 70.0 °F - 61.0 °F 73% 29.93 in 10.0 mi Calm Calm - N/A   Clear
11:53 PM 66.9 °F - 60.1 °F 79% 29.95 in 10.0 mi Calm Calm - N/A   Clear